Tracking 35274 objects as of 10-Sep-2026
HD Live streaming from Space Station
objects crossing your sky now

STARLINK-30154

Track STARLINK-30154 now!
10-day predictions
STARLINK-30154 is classified as:


NORAD ID: 57495
Int'l Code: 2023-113A
Launch date: August 7, 2023
Source: United States (US)
Launch site: AIR FORCE EASTERN TEST RANGE (AFETR)
Your satellite tracking list
Your tracking list is empty




NASA's NSSDC Master Catalog

Two Line Element Set (TLE):
1 57495U 23113A   26251.48699148  .00000740  00000-0  36411-4 0  9995
2 57495  43.0030  63.5460 0001715 274.9692  85.0964 15.27581291171472
Source of the keplerian elements: AFSPC